This is the latest recevied weather packets stored in our database for station/object HB9ZRH-10. If no packets are shown the sender has not sent any weather packets the latest 10 day(s).
| Time | Temp. | Humidity | Pressure | Rain* | Wind** | Luminosity | Snow |
|---|---|---|---|---|---|---|---|
| 1777491290 | 25° C | 37% | 1019.4 hPa | - | - | - | - |
| 1777490990 | 24.44° C | 38% | 1019.4 hPa | - | - | - | - |
| 1777490690 | 23.33° C | 38% | 1019.4 hPa | - | - | - | - |
| 1777490390 | 23.33° C | 38% | 1019.3 hPa | - | - | - | - |
| 1777490090 | 22.78° C | 39% | 1019.2 hPa | - | - | - | - |
| 1777489790 | 22.22° C | 39% | 1019.1 hPa | - | - | - | - |
| 1777489490 | 23.89° C | 38% | 1019.2 hPa | - | - | - | - |
| 1777489190 | 23.33° C | 38% | 1018.9 hPa | - | - | - | - |
| 1777488890 | 22.22° C | 39% | 1019.1 hPa | - | - | - | - |
| 1777488590 | 22.78° C | 39% | 1019 hPa | - | - | - | - |
| 1777488290 | 22.22° C | 38% | 1019 hPa | - | - | - | - |
| 1777487990 | 21.11° C | 40% | 1019 hPa | - | - | - | - |
| 1777487690 | 20.56° C | 40% | 1018.9 hPa | - | - | - | - |
| 1777487390 | 21.67° C | 39% | 1019 hPa | - | - | - | - |
| 1777487090 | 22.22° C | 39% | 1018.9 hPa | - | - | - | - |
| 1777486790 | 22.22° C | 39% | 1018.7 hPa | - | - | - | - |
| 1777486490 | 23.33° C | 38% | 1018.6 hPa | - | - | - | - |
| 1777486190 | 24.44° C | 38% | 1018.7 hPa | - | - | - | - |
| 1777485890 | 25° C | 37% | 1018.6 hPa | - | - | - | - |
| 1777485590 | 27.22° C | 36% | 1018.6 hPa | - | - | - | - |
| 1777485290 | 27.22° C | 36% | 1018.5 hPa | - | - | - | - |
| 1777484990 | 27.22° C | 36% | 1018.5 hPa | - | - | - | - |
| 1777484690 | 27.22° C | 36% | 1018.4 hPa | - | - | - | - |
| 1777484390 | 27.22° C | 36% | 1018.4 hPa | - | - | - | - |
| 1777484090 | 26.67° C | 37% | 1018.4 hPa | - | - | - | - |
* Rain since midnight (hover to see other rain measurements)
** Current wind speed in m/s (hover to see current wind gust speed)